| time (UTC) | temp F | wind direction | speed knots | gust knots | rain 1hr in | rain 24hr in | rain mn in | humidity % | barometer mb |
| 20260906010231 | 56 | 337 | 7.0 | 12.2 | 0.00 | 0.00 | 0.00 | 7 | 1011.6 |
| 20260906005710 | 56 | 315 | 7.8 | 11.3 | 0.00 | 0.00 | 0.00 | 7 | 1011.4 |
| 20260906005155 | 56 | 315 | 8.7 | 12.2 | 0.00 | 0.00 | 0.00 | 7 | 1011.5 |
| 20260906004634 | 56 | 315 | 5.2 | 7.0 | 0.00 | 0.00 | 0.00 | 7 | 1011.6 |
| 20260906004618 | 56 | 315 | 6.1 | 10.4 | 0.00 | 0.00 | 0.00 | 7 | 1011.3 |
| 20260906004057 | 56 | 315 | 7.8 | 11.3 | 0.00 | 0.00 | 0.00 | 7 | 1011.4 |
| 20260906003542 | 56 | 337 | 7.8 | 12.2 | 0.00 | 0.00 | 0.00 | 7 | 1011.2 |
| 20260906003027 | 57 | 315 | 8.7 | 12.2 | 0.00 | 0.00 | 0.00 | 7 | 1011.1 |
| 20260906002506 | 57 | 315 | 9.6 | 12.2 | 0.00 | 0.00 | 0.00 | 7 | 1011.3 |
| 20260906002450 | 57 | 292 | 9.6 | 14.8 | 0.00 | 0.00 | 0.00 | 7 | 1011.1 |
| 20260906001935 | 57 | 315 | 7.8 | 10.4 | 0.00 | 0.00 | 0.00 | 7 | 1010.9 |
| 20260906001414 | 57 | 337 | 5.2 | 8.7 | 0.00 | 0.00 | 0.00 | 7 | 1010.6 |
| 20260906000859 | 57 | 315 | 4.3 | 7.8 | 0.00 | 0.00 | 0.00 | 6 | 1010.0 |
| 20260906000340 | 57 | 270 | 3.5 | 5.2 | 0.00 | 0.00 | 0.00 | 6 | 1010.4 |
| 20260906000322 | 57 | 292 | 4.3 | 7.8 | 0.00 | 0.00 | 0.00 | 6 | 1010.7 |
| 20260905235801 | 57 | 270 | 4.3 | 8.7 | 0.00 | 0.00 | 0.07 | 6 | 1011.1 |
| 20260905235246 | 57 | 270 | 2.6 | 4.3 | 0.00 | 0.00 | 0.07 | 6 | 1010.3 |
| 20260905234731 | 57 | 270 | 2.6 | 5.2 | 0.00 | 0.00 | 0.07 | 6 | 1010.3 |
| 20260905234210 | 57 | 270 | 0.0 | 0.0 | 0.00 | 0.00 | 0.07 | 6 | 1010.9 |
| 20260905234155 | 57 | 270 | 2.6 | 3.5 | 0.00 | 0.00 | 0.07 | 6 | 1010.9 |
| 20260905233640 | 57 | 247 | 0.0 | 0.0 | 0.00 | 0.00 | 0.07 | 6 | 1010.2 |
| 20260905233119 | 57 | 270 | 2.6 | 4.3 | 0.00 | 0.00 | 0.07 | 6 | 1010.9 |
| 20260905232604 | 57 | 270 | 3.5 | 7.0 | 0.00 | 0.00 | 0.07 | 6 | 1010.4 |
| 20260905232043 | 58 | 270 | 3.5 | 4.3 | 0.00 | 0.00 | 0.07 | 6 | 1010.4 |
| 20260905232027 | 58 | 270 | 4.3 | 8.7 | 0.00 | 0.00 | 0.07 | 6 | 1010.3 |
| 20260905231506 | 58 | 270 | 4.3 | 7.0 | 0.00 | 0.00 | 0.07 | 6 | 1010.4 |
| 20260905230951 | 58 | 270 | 3.5 | 6.1 | 0.00 | 0.00 | 0.07 | 6 | 1010.2 |
| 20260905230436 | 58 | 270 | 4.3 | 7.8 | 0.00 | 0.00 | 0.07 | 6 | 1010.1 |
| 20260905225914 | 58 | 270 | 2.6 | 2.6 | 0.00 | 0.00 | 0.07 | 6 | 1010.4 |
| 20260905225859 | 58 | 270 | 3.5 | 7.0 | 0.00 | 0.00 | 0.07 | 6 | 1010.4 |
| 20260905225338 | 58 | 270 | 3.5 | 6.1 | 0.00 | 0.00 | 0.07 | 6 | 1010.8 |
| 20260905224823 | 59 | 315 | 5.2 | 8.7 | 0.00 | 0.00 | 0.07 | 6 | 1009.4 |
| 20260905224308 | 59 | 315 | 6.1 | 8.7 | 0.00 | 0.00 | 0.07 | 6 | 1009.5 |
| 20260905223747 | 59 | 270 | 4.3 | 7.0 | 0.00 | 0.00 | 0.07 | 6 | 1009.6 |
| 20260905223731 | 59 | 270 | 6.1 | 12.2 | 0.00 | 0.00 | 0.07 | 6 | 1009.7 |
| 20260905223210 | 59 | 270 | 7.0 | 11.3 | 0.00 | 0.00 | 0.07 | 6 | 1009.5 |
| 20260905222655 | 59 | 270 | 7.8 | 13.9 | 0.00 | 0.00 | 0.07 | 6 | 1009.4 |
| 20260905222140 | 59 | 270 | 8.7 | 13.0 | 0.00 | 0.00 | 0.07 | 5 | 1009.2 |
| 20260905221619 | 60 | 270 | 7.0 | 8.7 | 0.00 | 0.00 | 0.07 | 5 | 1009.1 |
| 20260905221603 | 60 | 270 | 9.6 | 13.9 | 0.00 | 0.00 | 0.07 | 5 | 1009.3 |
| 20260905221042 | 60 | 270 | 7.8 | 13.0 | 0.00 | 0.00 | 0.07 | 5 | 1009.8 |
| 20260905220527 | 60 | 270 | 8.7 | 12.2 | 0.00 | 0.00 | 0.07 | 5 | 1009.5 |
| 20260905220012 | 60 | 292 | 7.8 | 13.0 | 0.00 | 0.00 | 0.07 | 5 | 1009.7 |
| 20260905215451 | 60 | 292 | 7.8 | 10.4 | 0.00 | 0.00 | 0.07 | 5 | 1009.0 |
| 20260905215427 | 60 | 270 | 8.7 | 13.0 | 0.00 | 0.00 | 0.07 | 5 | 1009.0 |
| 20260905214912 | 60 | 270 | 7.8 | 12.2 | 0.00 | 0.00 | 0.07 | 5 | 1009.0 |
| 20260905214357 | 60 | 270 | 7.0 | 11.3 | 0.00 | 0.00 | 0.07 | 5 | 1009.0 |
| 20260905213836 | 60 | 270 | 5.2 | 7.0 | 0.00 | 0.00 | 0.07 | 5 | 1009.3 |
| 20260905213819 | 60 | 292 | 5.2 | 8.7 | 0.00 | 0.00 | 0.07 | 5 | 1008.9 |
| 20260905213258 | 60 | 270 | 7.0 | 13.9 | 0.00 | 0.00 | 0.07 | 5 | 1008.8 |
| 20260905212743 | 60 | 315 | 7.8 | 13.0 | 0.00 | 0.00 | 0.07 | 5 | 1008.4 |
| 20260905212228 | 60 | 270 | 8.7 | 12.2 | 0.00 | 0.00 | 0.07 | 5 | 1008.4 |
| 20260905211707 | 60 | 270 | 6.1 | 7.8 | 0.00 | 0.00 | 0.07 | 5 | 1008.6 |
| 20260905211651 | 60 | 270 | 8.7 | 13.9 | 0.00 | 0.00 | 0.07 | 5 | 1008.8 |
| 20260905211130 | 60 | 270 | 11.3 | 16.5 | 0.00 | 0.00 | 0.07 | 5 | 1008.6 |
| 20260905210615 | 60 | 270 | 10.4 | 17.4 | 0.00 | 0.00 | 0.07 | 5 | 1008.4 |
| 20260905210100 | 60 | 270 | 8.7 | 14.8 | 0.00 | 0.00 | 0.07 | 5 | 1008.1 |
| 20260905205539 | 60 | 270 | 9.6 | 12.2 | 0.00 | 0.00 | 0.07 | 5 | 1008.2 |
| 20260905205524 | 60 | 270 | 11.3 | 16.5 | 0.00 | 0.00 | 0.07 | 5 | 1008.0 |
| 20260905205003 | 60 | 270 | 9.6 | 13.0 | 0.00 | 0.00 | 0.07 | 5 | 1008.0 |
| 20260905204448 | 60 | 270 | 10.4 | 15.6 | 0.00 | 0.00 | 0.07 | 5 | 1008.1 |
| 20260905203933 | 60 | 270 | 11.3 | 18.2 | 0.00 | 0.00 | 0.07 | 5 | 1007.9 |
| 20260905203412 | 60 | 270 | 7.8 | 10.4 | 0.00 | 0.00 | 0.07 | 5 | 1008.4 |
| 20260905203356 | 60 | -1 | 8.7 | 13.0 | 0.00 | 0.00 | 0.07 | 5 | 1008.3 |
| 20260905202835 | 60 | -1 | 10.4 | 15.6 | 0.00 | 0.00 | 0.07 | 5 | 1008.3 |
| 20260905202320 | 60 | 270 | 8.7 | 13.0 | 0.00 | 0.00 | 0.07 | 5 | 1008.0 |
| 20260905201805 | 60 | 270 | 7.8 | 12.2 | 0.00 | 0.00 | 0.07 | 5 | 1008.1 |
| 20260905201244 | 60 | 270 | 4.3 | 6.1 | 0.00 | 0.00 | 0.07 | 5 | 1007.9 |
| 20260905201227 | 60 | 270 | 7.8 | 13.0 | 0.00 | 0.00 | 0.07 | 5 | 1007.7 |
| 20260905200706 | 60 | 270 | 7.0 | 11.3 | 0.00 | 0.00 | 0.07 | 5 | 1007.9 |
| 20260905200151 | 61 | -1 | 7.0 | 11.3 | 0.00 | 0.00 | 0.07 | 5 | 1007.7 |
| 20260905195636 | 61 | 270 | 7.8 | 12.2 | 0.00 | 0.00 | 0.07 | 5 | 1007.5 |
| 20260905195115 | 61 | 270 | 7.0 | 8.7 | 0.00 | 0.00 | 0.07 | 5 | 1007.2 |
| 20260905195059 | 61 | 270 | 10.4 | 15.6 | 0.00 | 0.00 | 0.07 | 5 | 1007.0 |
| 20260905194538 | 61 | 270 | 10.4 | 19.1 | 0.00 | 0.00 | 0.07 | 5 | 1007.3 |
| 20260905194023 | 62 | -1 | 10.4 | 14.8 | 0.00 | 0.00 | 0.07 | 5 | 1006.9 |
| 20260905193508 | 62 | 315 | 8.7 | 13.9 | 0.00 | 0.00 | 0.07 | 5 | 1006.4 |
| 20260905192947 | 62 | 270 | 8.7 | 11.3 | 0.00 | 0.00 | 0.07 | 5 | 1006.2 |
| 20260905192932 | 62 | 270 | 10.4 | 17.4 | 0.00 | 0.00 | 0.07 | 5 | 1005.9 |
| 20260905192411 | 62 | -1 | 9.6 | 17.4 | 0.00 | 0.00 | 0.07 | 5 | 1006.5 |
| 20260905191855 | 62 | -1 | 9.6 | 16.5 | 0.00 | 0.00 | 0.07 | 5 | 1006.6 |
| 20260905191340 | 62 | -1 | 9.6 | 16.5 | 0.00 | 0.00 | 0.07 | 5 | 1006.8 |
| 20260905190819 | 62 | 270 | 7.0 | 8.7 | 0.00 | 0.00 | 0.07 | 5 | 1006.9 |
| 20260905190802 | 62 | -1 | 9.6 | 15.6 | 0.00 | 0.00 | 0.07 | 5 | 1006.9 |
| 20260905190247 | 62 | -1 | 8.7 | 14.8 | 0.00 | 0.00 | 0.07 | 5 | 1006.8 |
| 20260905185726 | 63 | -1 | 10.4 | 14.8 | 0.00 | 0.00 | 0.07 | 5 | 1006.9 |
| 20260905185205 | 63 | 315 | 8.7 | 10.4 | 0.00 | 0.00 | 0.07 | 5 | 1006.4 |
| 20260905185148 | 63 | -1 | 8.7 | 14.8 | 0.00 | 0.00 | 0.07 | 5 | 1006.6 |
| 20260905184633 | 63 | 270 | 10.4 | 17.4 | 0.00 | 0.00 | 0.07 | 5 | 1006.7 |
| 20260905184112 | 63 | 292 | 12.2 | 19.1 | 0.00 | 0.00 | 0.07 | 5 | 1006.0 |
| 20260905183557 | 63 | 315 | 13.0 | 20.0 | 0.00 | 0.00 | 0.07 | 5 | 1006.2 |
| 20260905183035 | 63 | 270 | 8.7 | 11.3 | 0.00 | 0.00 | 0.07 | 5 | 1005.5 |
| 20260905183019 | 63 | 292 | 13.0 | 21.7 | 0.00 | 0.00 | 0.07 | 5 | 1005.3 |
| 20260905182458 | 64 | 292 | 14.8 | 21.7 | 0.00 | 0.00 | 0.07 | 5 | 1005.0 |
| 20260905181943 | 64 | 292 | 15.6 | 21.7 | 0.00 | 0.00 | 0.07 | 5 | 1005.7 |
| 20260905181428 | 64 | 270 | 15.6 | 23.5 | 0.00 | 0.00 | 0.07 | 5 | 1005.5 |
| 20260905180907 | 64 | 315 | 15.6 | 20.9 | 0.00 | 0.00 | 0.07 | 5 | 1005.2 |
| 20260905180852 | 64 | 315 | 15.6 | 25.2 | 0.00 | 0.00 | 0.07 | 5 | 1005.2 |
| 20260905180337 | 64 | 315 | 14.8 | 20.0 | 0.00 | 0.00 | 0.07 | 5 | 1005.4 |
| 20260905175816 | 64 | 270 | 13.0 | 18.2 | 0.00 | 0.00 | 0.07 | 5 | 1005.7 |
| 20260905175301 | 64 | 292 | 13.0 | 18.2 | 0.00 | 0.00 | 0.07 | 5 | 1005.4 |
| 20260905174740 | 64 | 292 | 9.6 | 13.0 | 0.00 | 0.00 | 0.07 | 5 | 1005.4 |
| 20260905174724 | 64 | 270 | 13.0 | 18.2 | 0.00 | 0.00 | 0.07 | 5 | 1005.1 |
| 20260905174203 | 65 | 315 | 13.9 | 26.1 | 0.00 | 0.00 | 0.07 | 5 | 1004.6 |
| 20260905173648 | 65 | 315 | 11.3 | 19.1 | 0.00 | 0.00 | 0.07 | 5 | 1004.8 |
| 20260905173133 | 65 | 315 | 12.2 | 18.2 | 0.00 | 0.00 | 0.07 | 5 | 1004.9 |
| 20260905172612 | 65 | 292 | 9.6 | 13.0 | 0.00 | 0.00 | 0.07 | 5 | 1003.9 |
| 20260905172548 | 65 | 292 | 11.3 | 17.4 | 0.00 | 0.00 | 0.07 | 5 | 1004.0 |
| 20260905172033 | 66 | 292 | 13.0 | 19.1 | 0.00 | 0.00 | 0.07 | 4 | 1004.6 |
| 20260905171518 | 66 | 270 | 13.0 | 18.2 | 0.00 | 0.00 | 0.07 | 4 | 1003.7 |
| 20260905170957 | 66 | 292 | 13.0 | 16.5 | 0.00 | 0.00 | 0.07 | 4 | 1003.8 |
| 20260905170940 | 66 | 292 | 14.8 | 20.9 | 0.00 | 0.00 | 0.07 | 4 | 1004.0 |
| 20260905170419 | 66 | 315 | 16.5 | 25.2 | 0.00 | 0.00 | 0.07 | 4 | 1003.8 |
| 20260905165904 | 67 | 315 | 15.6 | 22.6 | 0.00 | 0.00 | 0.07 | 4 | 1003.2 |
| 20260905165349 | 67 | 315 | 14.8 | 22.6 | 0.00 | 0.00 | 0.07 | 4 | 1003.5 |
| 20260905164828 | 67 | 315 | 15.6 | 20.0 | 0.00 | 0.00 | 0.07 | 4 | 1003.8 |
| 20260905164812 | 67 | 315 | 14.8 | 23.5 | 0.00 | 0.00 | 0.07 | 4 | 1003.6 |
| 20260905164251 | 67 | 270 | 14.8 | 24.3 | 0.00 | 0.00 | 0.07 | 4 | 1003.8 |
| 20260905163736 | 68 | 315 | 13.9 | 20.9 | 0.00 | 0.00 | 0.07 | 4 | 1003.6 |
| 20260905163221 | 68 | 315 | 13.9 | 22.6 | 0.00 | 0.00 | 0.07 | 4 | 1004.4 |
| 20260905162700 | 68 | 315 | 15.6 | 21.7 | 0.00 | 0.00 | 0.07 | 4 | 1003.2 |
| 20260905162644 | 68 | 315 | 16.5 | 26.1 | 0.00 | 0.00 | 0.07 | 4 | 1003.5 |
| 20260905162123 | 68 | 315 | 18.2 | 26.9 | 0.00 | 0.00 | 0.07 | 4 | 1002.3 |
| 20260905161608 | 68 | -1 | 17.4 | 27.8 | 0.00 | 0.00 | 0.07 | 4 | 1002.5 |
| 20260905161053 | 68 | 315 | 16.5 | 26.1 | 0.00 | 0.00 | 0.07 | 4 | 1003.2 |
| 20260905160532 | 69 | 337 | 13.9 | 20.9 | 0.00 | 0.00 | 0.07 | 4 | 1002.4 |
| 20260905160509 | 69 | 315 | 15.6 | 24.3 | 0.00 | 0.00 | 0.07 | 4 | 1002.5 |
| 20260905155953 | 69 | 315 | 15.6 | 25.2 | 0.00 | 0.00 | 0.07 | 4 | 1003.7 |
| 20260905155438 | 69 | 315 | 16.5 | 23.5 | 0.00 | 0.00 | 0.07 | 4 | 1003.1 |
| 20260905154917 | 69 | 315 | 14.8 | 20.0 | 0.00 | 0.00 | 0.07 | 4 | 1002.7 |
| 20260905154853 | 69 | 315 | 16.5 | 23.5 | 0.00 | 0.00 | 0.07 | 4 | 1002.4 |
| 20260905154338 | 69 | -1 | 18.2 | 26.1 | 0.00 | 0.00 | 0.07 | 4 | 1002.2 |
| 20260905153823 | 69 | 315 | 18.2 | 26.9 | 0.00 | 0.00 | 0.07 | 4 | 1002.2 |
| 20260905153302 | 70 | 315 | 13.0 | 17.4 | 0.00 | 0.00 | 0.07 | 4 | 1003.2 |
| 20260905153244 | 70 | 270 | 16.5 | 25.2 | 0.00 | 0.00 | 0.07 | 4 | 1002.6 |
| 20260905152729 | 70 | -1 | 16.5 | 25.2 | 0.00 | 0.00 | 0.07 | 4 | 1003.3 |
| 20260905152208 | 70 | 270 | 14.8 | 21.7 | 0.00 | 0.00 | 0.07 | 4 | 1004.3 |
| 20260905151646 | 69 | 315 | 14.8 | 19.1 | 0.00 | 0.00 | 0.07 | 4 | 1003.2 |
| 20260905151630 | 69 | 315 | 13.9 | 21.7 | 0.00 | 0.00 | 0.07 | 4 | 1003.5 |
| 20260905151115 | 69 | 315 | 15.6 | 24.3 | 0.00 | 0.00 | 0.07 | 4 | 1003.7 |
| 20260905150554 | 68 | 315 | 15.6 | 23.5 | 0.00 | 0.00 | 0.07 | 4 | 1002.3 |
| 20260905150039 | 68 | 315 | 13.9 | 20.0 | 0.00 | 0.00 | 0.07 | 4 | 1002.2 |
| 20260905145517 | 68 | 270 | 12.2 | 16.5 | 0.00 | 0.00 | 0.07 | 4 | 1003.5 |
| 20260905145502 | 68 | 270 | 13.9 | 20.9 | 0.00 | 0.00 | 0.07 | 4 | 1003.4 |
| 20260905144941 | 68 | 337 | 17.4 | 24.3 | 0.00 | 0.00 | 0.07 | 4 | 1002.3 |
| 20260905144426 | 68 | 315 | 13.9 | 21.7 | 0.00 | 0.00 | 0.07 | 4 | 1002.6 |
| 20260905143910 | 70 | 270 | 14.8 | 20.9 | 0.00 | 0.00 | 0.07 | 4 | 1003.2 |
| 20260905143350 | 69 | 315 | 16.5 | 21.7 | 0.00 | 0.00 | 0.07 | 4 | 1001.7 |
| 20260905143333 | 69 | 315 | 16.5 | 26.1 | 0.00 | 0.00 | 0.07 | 4 | 1001.9 |
| 20260905142812 | 70 | 315 | 15.6 | 21.7 | 0.00 | 0.00 | 0.07 | 4 | 1003.1 |
| 20260905142257 | 69 | -1 | 17.4 | 26.1 | 0.00 | 0.00 | 0.07 | 4 | 1001.9 |
| 20260905141742 | 69 | 315 | 16.5 | 26.1 | 0.00 | 0.00 | 0.07 | 4 | 1001.9 |
| 20260905141221 | 70 | 270 | 13.0 | 18.2 | 0.00 | 0.00 | 0.07 | 4 | 1002.0 |
| 20260905141205 | 70 | 315 | 19.1 | 28.7 | 0.00 | 0.00 | 0.07 | 4 | 1002.0 |
| 20260905140644 | 70 | -1 | 15.6 | 26.1 | 0.00 | 0.00 | 0.07 | 4 | 1002.2 |
| 20260905140129 | 71 | 270 | 14.8 | 23.5 | 0.00 | 0.00 | 0.07 | 4 | 1003.2 |
| 20260905135614 | 70 | -1 | 16.5 | 22.6 | 0.00 | 0.00 | 0.07 | 4 | 1003.1 |
| 20260905135053 | 71 | 315 | 18.2 | 26.1 | 0.00 | 0.00 | 0.07 | 4 | 1004.1 |
| 20260905135037 | 71 | -1 | 14.8 | 24.3 | 0.00 | 0.00 | 0.07 | 4 | 1003.4 |
| 20260905134516 | 70 | -1 | 16.5 | 26.1 | 0.00 | 0.00 | 0.07 | 4 | 1002.5 |
| 20260905134001 | 71 | -1 | 13.9 | 26.9 | 0.00 | 0.00 | 0.07 | 4 | 1003.8 |
| 20260905133446 | 70 | 270 | 13.9 | 20.9 | 0.00 | 0.00 | 0.07 | 4 | 1003.6 |
| 20260905132925 | 69 | 270 | 10.4 | 13.9 | 0.00 | 0.00 | 0.07 | 4 | 1002.8 |
| 20260905132909 | 69 | -1 | 14.8 | 23.5 | 0.00 | 0.00 | 0.07 | 4 | 1002.8 |
| 20260905132348 | 70 | 315 | 13.0 | 20.9 | 0.00 | 0.00 | 0.07 | 5 | 1003.2 |
| 20260905131833 | 69 | 270 | 15.6 | 23.5 | 0.00 | 0.00 | 0.07 | 4 | 1003.0 |
| 20260905131318 | 70 | 270 | 14.8 | 25.2 | 0.00 | 0.00 | 0.07 | 4 | 1002.8 |
| 20260905130757 | 69 | 315 | 10.4 | 14.8 | 0.00 | 0.00 | 0.07 | 5 | 1001.1 |
| 20260905130734 | 69 | 315 | 14.8 | 22.6 | 0.00 | 0.00 | 0.07 | 4 | 1001.9 |
| 20260905130219 | 70 | 315 | 14.8 | 21.7 | 0.00 | 0.00 | 0.07 | 5 | 1002.7 |
| 20260905125704 | 70 | 315 | 14.8 | 25.2 | 0.00 | 0.00 | 0.07 | 4 | 1003.0 |
| 20260905125143 | 70 | 315 | 16.5 | 25.2 | 0.00 | 0.00 | 0.07 | 4 | 1003.0 |
| 20260905125118 | 70 | 270 | 14.8 | 24.3 | 0.00 | 0.00 | 0.07 | 4 | 1002.8 |
| 20260905124603 | 70 | 270 | 13.0 | 19.1 | 0.00 | 0.00 | 0.07 | 4 | 1003.4 |
| 20260905124048 | 69 | 315 | 14.8 | 21.7 | 0.00 | 0.00 | 0.07 | 4 | 1002.6 |
| 20260905123527 | 69 | 270 | 14.8 | 20.0 | 0.00 | 0.00 | 0.07 | 4 | 1001.1 |
| 20260905123503 | 69 | 315 | 14.8 | 25.2 | 0.00 | 0.00 | 0.07 | 4 | 1000.8 |
| 20260905122948 | 69 | 315 | 12.2 | 20.0 | 0.00 | 0.00 | 0.07 | 4 | 1003.6 |
| 20260905122433 | 67 | 270 | 13.0 | 18.2 | 0.00 | 0.00 | 0.07 | 5 | 1002.8 |
| 20260905121912 | 66 | 270 | 10.4 | 14.8 | 0.00 | 0.00 | 0.07 | 5 | 1002.3 |
| 20260905121855 | 67 | 315 | 12.2 | 21.7 | 0.00 | 0.00 | 0.07 | 5 | 1002.0 |
| 20260905121334 | 68 | 270 | 11.3 | 18.2 | 0.00 | 0.00 | 0.07 | 5 | 1003.3 |
| 20260905120819 | 66 | -1 | 13.0 | 23.5 | 0.00 | 0.00 | 0.07 | 5 | 1002.0 |
| 20260905120304 | 67 | -1 | 13.9 | 21.7 | 0.00 | 0.00 | 0.07 | 5 | 1004.1 |
| 20260905115743 | 67 | 270 | 13.0 | 16.5 | 0.00 | 0.00 | 0.07 | 5 | 1001.8 |
| 20260905115727 | 67 | -1 | 13.0 | 20.0 | 0.00 | 0.00 | 0.07 | 5 | 1002.1 |
| 20260905115206 | 67 | 270 | 13.9 | 24.3 | 0.00 | 0.00 | 0.07 | 5 | 1003.5 |
| 20260905114651 | 67 | 270 | 14.8 | 22.6 | 0.00 | 0.00 | 0.07 | 5 | 1003.1 |
| 20260905114136 | 68 | 270 | 13.9 | 25.2 | 0.00 | 0.00 | 0.07 | 5 | 1003.8 |
| 20260905113615 | 68 | 315 | 11.3 | 17.4 | 0.00 | 0.00 | 0.07 | 5 | 1001.6 |
| 20260905113600 | 68 | 315 | 16.5 | 23.5 | 0.00 | 0.00 | 0.07 | 5 | 1002.0 |
| 20260905113045 | 67 | 270 | 16.5 | 26.9 | 0.00 | 0.00 | 0.07 | 5 | 1002.9 |
| 20260905112524 | 66 | -1 | 16.5 | 26.1 | 0.00 | 0.00 | 0.07 | 5 | 1002.6 |
| 20260905112008 | 65 | 270 | 15.6 | 26.1 | 0.00 | 0.00 | 0.07 | 5 | 1001.8 |
| 20260905111448 | 67 | 270 | 11.3 | 14.8 | 0.00 | 0.00 | 0.07 | 5 | 1002.8 |
| 20260905111432 | 66 | 315 | 13.0 | 21.7 | 0.00 | 0.00 | 0.07 | 5 | 1002.4 |
| 20260905110911 | 67 | 270 | 15.6 | 28.7 | 0.00 | 0.00 | 0.07 | 5 | 1002.4 |
| 20260905110356 | 67 | -1 | 16.5 | 26.9 | 0.00 | 0.00 | 0.07 | 5 | 1000.9 |
| 20260905105841 | 67 | 315 | 13.0 | 22.6 | 0.00 | 0.00 | 0.07 | 5 | 1003.0 |
| 20260905105320 | 66 | 270 | 12.2 | 17.4 | 0.00 | 0.00 | 0.07 | 5 | 1002.8 |
| 20260905105305 | 66 | -1 | 13.9 | 27.8 | 0.00 | 0.00 | 0.07 | 5 | 1002.0 |
| 20260905104741 | 68 | -1 | 14.8 | 25.2 | 0.00 | 0.00 | 0.07 | 5 | 1003.2 |
| 20260905104226 | 67 | -1 | 15.6 | 24.3 | 0.00 | 0.00 | 0.07 | 5 | 1002.9 |
| 20260905103705 | 67 | 270 | 7.8 | 10.4 | 0.00 | 0.00 | 0.07 | 5 | 1003.7 |
| 20260905103648 | 67 | -1 | 15.6 | 28.7 | 0.00 | 0.00 | 0.07 | 5 | 1002.8 |
| 20260905103127 | 67 | 225 | 10.4 | 18.2 | 0.00 | 0.00 | 0.07 | 5 | 1002.7 |
| 20260905102612 | 67 | -1 | 13.0 | 22.6 | 0.00 | 0.00 | 0.07 | 5 | 1003.2 |
| 20260905102057 | 67 | 270 | 13.9 | 23.5 | 0.00 | 0.00 | 0.07 | 5 | 1003.8 |
| 20260905101536 | 67 | -1 | 11.3 | 15.6 | 0.00 | 0.00 | 0.07 | 5 | 1002.8 |
| 20260905101513 | 67 | -1 | 13.9 | 21.7 | 0.00 | 0.00 | 0.07 | 5 | 1003.4 |
| 20260905100958 | 66 | -1 | 16.5 | 28.7 | 0.00 | 0.00 | 0.07 | 5 | 1001.6 |
| 20260905100442 | 66 | 270 | 12.2 | 21.7 | 0.00 | 0.00 | 0.07 | 5 | 1001.2 |
| 20260905095921 | 65 | 270 | 11.3 | 14.8 | 0.00 | 0.00 | 0.07 | 5 | 1001.2 |
| 20260905095905 | 65 | 292 | 15.6 | 21.7 | 0.00 | 0.00 | 0.07 | 5 | 1000.8 |
| 20260905095344 | 63 | 247 | 13.0 | 21.7 | 0.00 | 0.00 | 0.07 | 6 | 1002.4 |
| 20260905094829 | 64 | -1 | 14.8 | 24.3 | 0.00 | 0.00 | 0.07 | 6 | 1001.4 |
| 20260905094314 | 64 | 270 | 13.0 | 21.7 | 0.00 | 0.00 | 0.07 | 6 | 1000.5 |
| 20260905093753 | 65 | 270 | 8.7 | 11.3 | 0.00 | 0.00 | 0.07 | 6 | 1002.3 |
| 20260905093737 | 65 | 270 | 13.9 | 20.9 | 0.00 | 0.00 | 0.07 | 6 | 1001.9 |
| 20260905093222 | 64 | 270 | 13.9 | 23.5 | 0.00 | 0.00 | 0.07 | 6 | 1002.8 |
| 20260905092701 | 63 | 270 | 9.6 | 17.4 | 0.00 | 0.00 | 0.07 | 6 | 1003.0 |
| 20260905092146 | 63 | 270 | 11.3 | 20.9 | 0.00 | 0.00 | 0.07 | 6 | 1003.0 |
| 20260905091625 | 64 | 270 | 7.8 | 10.4 | 0.00 | 0.00 | 0.07 | 6 | 1004.1 |
| 20260905091609 | 64 | 247 | 12.2 | 20.0 | 0.00 | 0.00 | 0.07 | 6 | 1003.9 |
| 20260905091048 | 62 | 315 | 12.2 | 16.5 | 0.00 | 0.00 | 0.07 | 6 | 1002.4 |
| 20260905090533 | 64 | 292 | 9.6 | 20.0 | 0.00 | 0.00 | 0.07 | 6 | 1002.9 |
| 20260905090018 | 64 | 247 | 12.2 | 22.6 | 0.00 | 0.00 | 0.07 | 6 | 1004.2 |
| 20260905085457 | 63 | 247 | 10.4 | 16.5 | 0.00 | 0.00 | 0.07 | 7 | 1005.3 |
| 20260905085433 | 63 | 292 | 13.0 | 20.0 | 0.00 | 0.00 | 0.07 | 7 | 1004.1 |
| 20260905084918 | 62 | 247 | 13.0 | 20.9 | 0.00 | 0.00 | 0.07 | 7 | 1003.9 |
| 20260905084403 | 62 | 225 | 13.9 | 20.0 | 0.00 | 0.00 | 0.07 | 7 | 1004.7 |
| 20260905083842 | 62 | 270 | 9.6 | 14.8 | 0.00 | 0.00 | 0.07 | 7 | 1005.2 |
| 20260905083818 | 62 | 247 | 12.2 | 22.6 | 0.00 | 0.00 | 0.07 | 7 | 1004.5 |
| 20260905083303 | 61 | 270 | 15.6 | 25.2 | 0.00 | 0.00 | 0.07 | 7 | 1004.7 |
| 20260905082748 | 61 | 270 | 12.2 | 20.9 | 0.00 | 0.00 | 0.07 | 7 | 1002.8 |
| 20260905082227 | 61 | 270 | 11.3 | 14.8 | 0.00 | 0.00 | 0.07 | 7 | 1002.8 |
| 20260905082210 | 62 | 247 | 13.0 | 21.7 | 0.00 | 0.00 | 0.07 | 7 | 1004.2 |
| 20260905081649 | 62 | 247 | 11.3 | 19.1 | 0.00 | 0.00 | 0.07 | 7 | 1003.6 |
| 20260905081134 | 61 | 270 | 11.3 | 17.4 | 0.00 | 0.00 | 0.07 | 7 | 1003.7 |
| 20260905080619 | 61 | 225 | 9.6 | 14.8 | 0.00 | 0.00 | 0.07 | 7 | 1003.8 |
| 20260905080058 | 61 | 247 | 11.3 | 15.6 | 0.00 | 0.00 | 0.07 | 7 | 1003.5 |
| 20260905080042 | 61 | 270 | 11.3 | 17.4 | 0.00 | 0.00 | 0.07 | 8 | 1003.3 |
| 20260905075521 | 60 | 270 | 10.4 | 16.5 | 0.00 | 0.00 | 0.07 | 7 | 1004.1 |
| 20260905075006 | 60 | 247 | 9.6 | 15.6 | 0.00 | 0.00 | 0.07 | 8 | 1006.2 |
| 20260905074451 | 59 | 270 | 9.6 | 15.6 | 0.00 | 0.00 | 0.07 | 8 | 1005.1 |
| 20260905073930 | 60 | 247 | 7.8 | 12.2 | 0.00 | 0.00 | 0.07 | 8 | 1005.8 |
| 20260905073906 | 59 | 247 | 9.6 | 14.8 | 0.00 | 0.00 | 0.07 | 8 | 1005.7 |
| 20260905073351 | 59 | 247 | 10.4 | 17.4 | 0.00 | 0.00 | 0.07 | 8 | 1005.1 |
| 20260905072836 | 58 | 247 | 10.4 | 16.5 | 0.00 | 0.00 | 0.07 | 8 | 1005.8 |
| 20260905072315 | 58 | 247 | 7.0 | 8.7 | 0.00 | 0.00 | 0.07 | 8 | 1006.1 |
| 20260905072258 | 58 | 225 | 10.4 | 16.5 | 0.00 | 0.00 | 0.07 | 8 | 1006.0 |
| 20260905071737 | 58 | 270 | 9.6 | 13.9 | 0.00 | 0.00 | 0.07 | 8 | 1006.0 |
| 20260905071222 | 58 | 247 | 10.4 | 13.9 | 0.00 | 0.00 | 0.07 | 8 | 1005.9 |
| 20260905070707 | 58 | 247 | 9.6 | 14.8 | 0.00 | 0.00 | 0.07 | 9 | 1007.7 |
| 20260905070146 | 57 | 247 | 7.8 | 10.4 | 0.00 | 0.00 | 0.07 | 9 | 1007.0 |
| 20260905070130 | 57 | 270 | 10.4 | 17.4 | 0.00 | 0.00 | 0.07 | 9 | 1006.4 |
| 20260905065609 | 57 | 247 | 10.4 | 16.5 | 0.00 | 0.00 | 0.07 | 9 | 1006.6 |
| 20260905065054 | 57 | 270 | 9.6 | 13.0 | 0.00 | 0.00 | 0.07 | 9 | 1007.4 |
| 20260905064539 | 56 | 247 | 10.4 | 17.4 | 0.00 | 0.00 | 0.07 | 9 | 1007.8 |
| 20260905064018 | 56 | 270 | 9.6 | 12.2 | 0.00 | 0.00 | 0.07 | 9 | 1006.6 |
| 20260905063955 | 56 | 270 | 10.4 | 14.8 | 0.00 | 0.00 | 0.07 | 9 | 1006.6 |
| 20260905063440 | 56 | 270 | 12.2 | 18.2 | 0.00 | 0.00 | 0.07 | 9 | 1006.7 |
| 20260905062925 | 56 | 225 | 10.4 | 16.5 | 0.00 | 0.00 | 0.07 | 9 | 1007.7 |
| 20260905062404 | 56 | 247 | 9.6 | 13.0 | 0.00 | 0.00 | 0.07 | 9 | 1009.2 |
| 20260905062347 | 56 | 270 | 12.2 | 16.5 | 0.00 | 0.00 | 0.07 | 9 | 1007.5 |
| 20260905061832 | 56 | 270 | 10.4 | 15.6 | 0.00 | 0.00 | 0.07 | 9 | 1008.6 |
| 20260905061311 | 55 | 247 | 11.3 | 17.4 | 0.00 | 0.00 | 0.07 | 9 | 1008.3 |
| 20260905060757 | 56 | 247 | 8.7 | 14.8 | 0.00 | 0.00 | 0.07 | 9 | 1008.2 |
| 20260905060235 | 55 | 247 | 7.8 | 10.4 | 0.00 | 0.00 | 0.07 | 9 | 1008.8 |
| 20260905060219 | 55 | 247 | 10.4 | 15.6 | 0.00 | 0.00 | 0.07 | 9 | 1008.6 |
| 20260905055658 | 56 | 225 | 9.6 | 15.6 | 0.00 | 0.00 | 0.07 | 9 | 1010.0 |
| 20260905055143 | 55 | 247 | 8.7 | 13.9 | 0.00 | 0.00 | 0.07 | 9 | 1007.1 |
| 20260905054628 | 55 | 225 | 10.4 | 14.8 | 0.00 | 0.00 | 0.07 | 9 | 1008.2 |
| 20260905054107 | 55 | 225 | 7.8 | 11.3 | 0.00 | 0.00 | 0.07 | 9 | 1008.0 |
| 20260905054051 | 55 | 247 | 8.7 | 13.9 | 0.00 | 0.00 | 0.07 | 9 | 1006.8 |
| 20260905053529 | 55 | 202 | 7.8 | 12.2 | 0.00 | 0.00 | 0.07 | 8 | 1006.5 |
| 20260905053014 | 55 | 202 | 7.8 | 12.2 | 0.00 | 0.00 | 0.07 | 8 | 1005.3 |
| 20260905052459 | 55 | 225 | 7.8 | 13.9 | 0.00 | 0.00 | 0.07 | 8 | 1005.3 |
| 20260905051938 | 54 | 247 | 6.1 | 10.4 | 0.00 | 0.00 | 0.07 | 9 | 1005.5 |
| 20260905051922 | 54 | 225 | 8.7 | 13.0 | 0.00 | 0.00 | 0.07 | 9 | 1005.4 |
| 20260905051407 | 55 | 247 | 7.8 | 13.0 | 0.00 | 0.00 | 0.07 | 9 | 1004.7 |
| 20260905050846 | 55 | 247 | 7.8 | 13.9 | 0.00 | 0.00 | 0.07 | 9 | 1005.5 |
| 20260905050331 | 54 | 270 | 7.0 | 12.2 | 0.00 | 0.00 | 0.07 | 9 | 1006.9 |
| 20260905045810 | 54 | 225 | 6.1 | 8.7 | 0.00 | 0.00 | 0.07 | 9 | 1008.3 |
| 20260905045754 | 54 | 247 | 7.8 | 13.0 | 0.00 | 0.00 | 0.07 | 9 | 1008.2 |
| 20260905045233 | 55 | 247 | 10.4 | 15.6 | 0.00 | 0.00 | 0.07 | 9 | 1009.2 |
| 20260905044718 | 54 | 247 | 8.7 | 14.8 | 0.00 | 0.00 | 0.07 | 10 | 1007.5 |
| 20260905044204 | 54 | 270 | 8.7 | 13.0 | 0.00 | 0.00 | 0.07 | 10 | 1009.3 |
| 20260905043643 | 55 | 225 | 9.6 | 13.9 | 0.00 | 0.00 | 0.07 | 9 | 1006.5 |
| 20260905043627 | 55 | 247 | 14.8 | 21.7 | 0.00 | 0.00 | 0.07 | 9 | 1006.8 |
| 20260905043106 | 54 | 225 | 11.3 | 15.6 | 0.00 | 0.00 | 0.07 | 9 | 1006.9 |
| 20260905042551 | 55 | 225 | 9.6 | 16.5 | 0.00 | 0.00 | 0.07 | 9 | 1006.7 |
| 20260905042036 | 55 | 270 | 9.6 | 15.6 | 0.00 | 0.00 | 0.07 | 9 | 1006.7 |
| 20260905041515 | 55 | 225 | 7.0 | 10.4 | 0.00 | 0.00 | 0.06 | 9 | 1007.4 |
| 20260905041452 | 55 | 225 | 10.4 | 15.6 | 0.00 | 0.00 | 0.06 | 9 | 1006.8 |
| 20260905040937 | 55 | 225 | 9.6 | 13.0 | 0.00 | 0.00 | 0.06 | 9 | 1006.6 |
| 20260905040422 | 55 | 225 | 10.4 | 15.6 | 0.00 | 0.00 | 0.06 | 9 | 1006.7 |
| 20260905035901 | 55 | 225 | 7.0 | 10.4 | 0.00 | 0.00 | 0.06 | 9 | 1006.5 |
| 20260905035836 | 55 | 247 | 10.4 | 15.6 | 0.00 | 0.00 | 0.06 | 9 | 1006.2 |
| 20260905035321 | 54 | 180 | 12.2 | 17.4 | 0.00 | 0.00 | 0.06 | 9 | 1007.5 |
| 20260905034806 | 54 | 202 | 11.3 | 15.6 | 0.00 | 0.00 | 0.06 | 9 | 1006.9 |
| 20260905034245 | 55 | 225 | 8.7 | 10.4 | 0.00 | 0.00 | 0.06 | 9 | 1008.6 |
| 20260905034221 | 55 | 247 | 7.8 | 14.8 | 0.00 | 0.00 | 0.06 | 9 | 1008.4 |
| 20260905033706 | 55 | 225 | 7.8 | 12.2 | 0.00 | 0.00 | 0.06 | 9 | 1007.0 |
| 20260905033151 | 55 | 225 | 9.6 | 16.5 | 0.00 | 0.00 | 0.05 | 9 | 1007.2 |
| 20260905032630 | 55 | 225 | 7.8 | 9.6 | 0.00 | 0.00 | 0.05 | 9 | 1007.1 |
| 20260905032613 | 55 | 225 | 8.7 | 13.9 | 0.00 | 0.00 | 0.06 | 9 | 1007.1 |
| 20260905032058 | 55 | 202 | 7.8 | 13.0 | 0.00 | 0.00 | 0.05 | 8 | 1006.5 |
| 20260905031537 | 55 | 225 | 7.8 | 13.9 | 0.00 | 0.00 | 0.05 | 8 | 1006.5 |
| 20260905031022 | 56 | 270 | 7.0 | 12.2 | 0.00 | 0.00 | 0.04 | 8 | 1005.5 |
| 20260905030501 | 56 | 270 | 8.7 | 11.3 | 0.00 | 0.00 | 0.03 | 8 | 1004.2 |
| 20260905030444 | 56 | 270 | 8.7 | 13.9 | 0.00 | 0.00 | 0.03 | 8 | 1004.4 |
| 20260905025923 | 57 | 270 | 7.8 | 12.2 | 0.00 | 0.00 | 0.03 | 8 | 1003.7 |
| 20260905025408 | 57 | 270 | 6.1 | 9.6 | 0.00 | 0.00 | 0.02 | 7 | 1003.0 |
| 20260905024847 | 57 | 270 | 6.1 | 7.8 | 0.00 | 0.00 | 0.02 | 8 | 1003.1 |
| 20260905024830 | 57 | 270 | 4.3 | 9.6 | 0.00 | 0.00 | 0.02 | 8 | 1003.3 |
| 20260905024309 | 57 | 247 | 4.3 | 7.0 | 0.00 | 0.00 | 0.02 | 8 | 1004.4 |
| 20260905023754 | 57 | 270 | 6.1 | 9.6 | 0.00 | 0.00 | 0.02 | 8 | 1003.8 |
| 20260905023239 | 57 | 270 | 7.0 | 9.6 | 0.00 | 0.00 | 0.02 | 8 | 1002.2 |
| 20260905022718 | 58 | 270 | 4.3 | 6.1 | 0.00 | 0.00 | 0.01 | 8 | 1002.8 |
| 20260905022702 | 58 | 315 | 7.0 | 11.3 | 0.00 | 0.00 | 0.01 | 8 | 1002.7 |
| 20260905022141 | 58 | 292 | 6.1 | 9.6 | 0.00 | 0.00 | 0.01 | 8 | 1004.6 |
| 20260905021626 | 58 | 315 | 4.3 | 7.0 | 0.00 | 0.00 | 0.01 | 8 | 1005.0 |
| 20260905021111 | 58 | 315 | 4.3 | 6.1 | 0.00 | 0.00 | 0.01 | 8 | 1004.4 |
| 20260905020550 | 58 | 315 | 0.0 | 0.0 | 0.00 | 0.00 | 0.01 | 8 | 1004.1 |
| 20260905020534 | 58 | 315 | 3.5 | 7.0 | 0.00 | 0.00 | 0.02 | 8 | 1004.0 |
| 20260905020019 | 58 | 337 | 5.2 | 8.7 | 0.00 | 0.00 | 0.01 | 8 | 1004.5 |
| 20260905015458 | 59 | 315 | 8.7 | 13.0 | 0.00 | 0.00 | 0.01 | 8 | 1004.3 |
| 20260905014943 | 59 | 315 | 3.5 | 7.0 | 0.00 | 0.00 | 0.01 | 8 | 1003.9 |
| 20260905014422 | 59 | 315 | 5.2 | 6.1 | 0.00 | 0.00 | 0.01 | 7 | 1002.7 |
| 20260905014406 | 59 | 315 | 5.2 | 7.0 | 0.00 | 0.00 | 0.01 | 8 | 1002.7 |
| 20260905013845 | 59 | 292 | 7.0 | 12.2 | 0.00 | 0.00 | 0.01 | 8 | 1003.6 |
| 20260905013330 | 59 | 315 | 4.3 | 8.7 | 0.00 | 0.00 | 0.01 | 8 | 1003.1 |
| 20260905012815 | 59 | 315 | 5.2 | 9.6 | 0.00 | 0.00 | 0.01 | 8 | 1003.1 |
| 20260905012254 | 59 | 270 | 7.0 | 9.6 | 0.00 | 0.00 | 0.01 | 7 | 1003.5 |
| 20260905012238 | 59 | 270 | 5.2 | 10.4 | 0.00 | 0.00 | 0.01 | 7 | 1003.5 |
| 20260905011717 | 60 | 270 | 3.5 | 6.1 | 0.00 | 0.00 | 0.01 | 7 | 1001.6 |
| 20260905011202 | 60 | 270 | 2.6 | 4.3 | 0.00 | 0.00 | 0.01 | 7 | 1000.3 |
| 20260905010647 | 60 | 247 | 0.0 | 2.6 | 0.00 | 0.00 | 0.00 | 6 | 1000.3 |